Regional Weather Roundup
Issued by NWS Albany, NY

Home | Current Version | Previous Version | Text Only | Print | Product List | Glossary On
Versions: 1 2 3 4 5 6 7 8 9 10 11 12 13 14 15 16 17 18 19 20 21 22 23 24 25 26 27 28 29 30 31 32 33 34 35 36 37 38 39 40 41 42 43 44 45 46 47 48 49 50
000
ASUS41 KALY 272310
RWRALY

NEW YORK STATE HOURLY WEATHER ROUNDUP
NATIONAL WEATHER SERVICE ALBANY NY
700 PM EDT FRI MAR 27 2015

NOTE: "FAIR" INDICATES FEW OR NO CLOUDS BELOW 12,000 FEET WITH NO
SIGNIFICANT WEATHER AND/OR NO OBSTRUCTIONS TO VISIBILITY.

NYZ032-033-038>043-046>054-057>066-NYZ062>081-280000-
EAST


CITY           SKY/WX    TMP DP  RH WIND       PRES   REMARKS
ALBANY         MOCLDY    40  25  55 NW15      29.77R WCI  32
GLENS FALLS    CLOUDY    37  29  72 NE8       29.77R WCI  31
POUGHKEEPSIE   CLOUDY    43  26  51 N5        29.75S
NEWBURGH       MOCLDY    41  28  60 NW7       29.75R
MONTGOMERY     CLOUDY    42  25  50 NW3       29.74R
WHITE PLAINS   MOCLDY    42  28  57 NW7       29.72R
ISLIP          CLOUDY    44  31  60 N8        29.73R
NEW YORK CITY  CLOUDY    45  29  53 NW10      29.74R
CENTRAL PARK   CLOUDY    44  28  53 VRB5      29.76R
$$

NYZ005>009-017-018-044>046-055-056-280000-
CENTRAL


CITY           SKY/WX    TMP DP  RH WIND       PRES   REMARKS
FULTON         CLOUDY    26  20  77 NW8       29.90R WCI  18
SYRACUSE       CLOUDY    29  23  78 NW12      29.89R WCI  19
ROME           CLOUDY    32  24  72 NW8       29.86R WCI  25
ELMIRA         LGT SNOW  32  28  85 NE7       29.83R FOG     WCI  26
BINGHAMTON     LGT SNOW  30  25  81 N15       29.78R WCI  19
MONTICELLO     CLOUDY    36  23  60 NW8       29.75R WCI  29
$$

NYZ026>034-041>043-280000-
NORTH


CITY           SKY/WX    TMP DP  RH WIND       PRES   REMARKS
WATERTOWN      LGT SNOW  24  18  77 N7        29.92R WCI  16
FORT DRUM      NOT AVBL
MASSENA        LGT SNOW  25  23  92 W13       29.90R FOG     WCI  14
SARANAC LAKE   LGT SNOW  27  23  85 NW5       29.74R FOG     WCI  22
PLATTSBURGH    CLOUDY    32  27  81 N5        29.82R WCI  27
$$

NYZ001>004-010>016-019>021-280000-
WEST


CITY           SKY/WX    TMP DP  RH WIND       PRES   REMARKS
NIAGARA FALLS  MOCLDY    25  15  66 N12       29.95R WCI  14
BUFFALO        CLOUDY    25  16  68 NW9       29.93R WCI  15
DUNKIRK        LGT SNOW  24  21  88 N8        29.96R FOG     WCI  15
JAMESTOWN      CLOUDY    21  16  79 W14G20    29.87R WCI   8
WELLSVILLE     LGT SNOW  25  20  81 NW9       29.81R WCI  15
ROCHESTER      FLURRIES  28  21  75 NW10      29.91R WCI  19
PENN YAN       LGT SNOW  30  24  78 NW8       29.87R WCI  22
$$

             KEY
       WCI = WIND CHILL INDEX
       VSB = VISIBILITY
       HX  = HEAT INDEX
$$



USA.gov is the U.S. government's official web portal to all federal, state and local government web resources and services.